Wetbulb
72.37 72.37 72.18 70.98 69.83 69.38 69.13 69.69 69.94 70.36 70.61 70.45 70.21 69.92 70.16 70.43 70.38 69.96 69.39 69.25 69.69 69.99 69.39 68.83 68.78 68.04 67.55 66.55 66.70 67.84 70.19 70.22
72.00 72.46 72.32 72.48 71.76 68.94 68.66 69.00 69.27 69.54 70.05 69.56 68.86 68.85 69.36 69.38 69.04 68.93 69.13 68.99 69.21 69.43 68.63 68.27 68.05 67.29 66.58 66.29 66.42 67.31 69.52 69.43
72.06 72.28 72.63 72.84 72.22 70.90 69.14 69.08 69.13 69.00 69.58 68.87 67.73 69.64 71.22 70.23 68.81 68.43 68.95 68.49 68.54 68.78 68.14 67.52 66.87 66.70 66.45 66.20 66.42 68.70 68.75 69.02
71.90 72.24 72.48 72.51 71.22 72.13 71.45 70.35 69.73 70.04 70.62 70.86 69.36 69.24 69.76 69.21 68.83 68.29 68.56 67.92 67.86 67.86 67.04 66.69 66.83 68.81 68.44 66.48 68.80 68.05 68.58 69.17
70.64 71.88 72.75 72.38 71.41 71.83 71.72 70.72 69.81 69.50 70.69 71.40 71.55 70.71 69.63 68.96 69.41 68.61 69.73 67.77 69.53 68.53 68.31 69.48 70.59 70.45 69.11 69.40 68.46 68.28 68.27 69.20
64.84 71.11 72.36 71.98 72.29 71.63 71.66 71.14 70.82 69.70 69.92 71.56 71.16 70.94 70.01 68.20 67.87 69.18 69.95 69.71 70.36 70.15 69.87 70.96 71.47 70.46 70.43 69.38 68.58 68.80 68.13 68.96
60.62 62.79 65.50 72.10 72.55 72.25 71.89 71.64 71.07 70.90 69.92 70.47 70.42 69.97 70.35 69.80 68.67 68.89 69.65 69.87 70.41 70.38 70.34 70.82 71.11 70.87 70.73 70.13 69.15 68.68 68.02 69.43
61.46 62.52 63.11 68.40 72.15 71.87 72.03 72.35 72.12 71.31 70.79 69.93 70.47 69.80 69.78 70.18 69.48 68.95 68.82 69.25 69.61 69.90 69.94 70.19 70.54 70.76 70.43 70.76 70.18 69.64 68.85 68.55
59.49 62.31 63.98 60.79 71.21 72.63 71.34 73.17 72.08 71.46 71.24 71.21 70.53 69.99 69.40 70.13 69.82 69.55 69.04 69.32 69.44 69.17 69.35 69.67 69.50 69.66 69.73 70.13 70.00 70.38 69.43 68.69
58.80 60.74 62.68 62.13 59.61 66.39 71.23 71.68 71.03 71.99 71.35 71.33 70.83 70.09 69.36 69.10 68.48 69.45 70.01 69.48 69.09 68.46 67.88 67.51 67.79 68.08 68.38 68.60 69.24 69.91 70.35 69.45
57.37 59.16 60.25 60.95 59.36 61.56 69.57 70.58 70.27 72.15 71.54 70.93 70.97 70.64 69.73 68.64 67.40 67.81 69.96 69.49 69.05 68.32 67.78 67.50 66.59 66.61 67.09 68.20 68.70 68.96 70.08 69.89
56.93 57.55 58.50 60.03 59.58 59.74 62.84 69.38 69.61 70.96 71.07 70.35 70.68 70.50 70.10 69.29 67.71 67.41 68.13 68.45 68.30 68.37 67.98 67.81 66.98 66.27 65.40 65.86 68.01 69.36 69.80 70.38
55.21 56.16 56.76 58.11 58.49 56.91 57.83 57.27 63.13 68.67 69.89 70.43 69.82 70.36 70.18 69.89 68.90 67.61 67.53 66.66 67.28 68.26 68.10 67.31 66.31 66.60 64.80 64.63 65.73 68.94 69.57 69.89
53.57 54.74 55.56 56.51 56.89 58.49 57.74 57.42 60.19 63.30 69.00 68.68 69.51 69.57 69.31 69.76 69.32 68.44 67.88 66.53 67.30 67.95 67.65 66.20 66.02 66.35 63.26 62.10 60.13 63.44 67.07 68.96
52.41 53.37 54.21 55.31 56.00 57.37 58.83 60.02 61.91 63.34 64.97 67.46 68.17 69.16 69.53 68.94 69.41 69.72 69.22 67.70 65.88 67.26 67.36 66.65 63.95 65.28 65.86 61.64 59.13 58.24 61.90 66.89
52.04 52.61 53.39 53.57 54.85 55.21 55.60 56.41 56.21 58.91 58.49 59.98 63.16 67.57 67.92 67.85 68.34 69.00 69.85 68.91 67.37 67.11 66.87 66.77 66.03 62.77 64.79 64.77 65.36 63.53 61.69 60.67
51.82 51.50 52.18 53.24 53.57 54.04 54.04 54.50 54.79 54.80 58.23 58.75 59.38 60.45 68.07 68.01 67.47 67.25 67.80 69.07 68.74 68.20 67.31 67.35 66.03 64.64 63.76 63.48 63.65 63.28 65.73 63.18
52.12 50.83 50.39 52.05 52.62 53.17 53.09 52.89 53.45 52.89 53.77 55.63 58.44 59.67 61.52 66.90 67.23 67.32 67.10 67.95 68.04 68.66 68.68 67.74 66.57 66.06 64.85 64.63 63.00 61.62 61.52 62.05
51.20 50.25 49.24 50.27 51.26 51.45 52.61 52.79 53.25 53.55 52.54 52.89 54.60 56.18 58.22 60.45 61.93 66.63 67.37 68.41 68.55 68.52 67.69 67.38 67.99 66.48 67.23 65.39 65.83 64.89 63.74 62.89
50.29 49.56 48.57 49.36 49.91 50.02 51.63 52.61 52.20 52.72 53.57 52.57 53.31 54.47 56.32 58.83 59.48 60.37 66.40 67.29 68.24 67.37 67.00 66.77 67.82 67.77 67.40 67.92 66.45 66.89 65.85 65.09
MSLP
1019.47 1019.83 1020.53 1020.97 1021.23 1021.40 1021.36 1021.49 1021.76 1021.95 1022.08 1022.32 1022.43 1022.47 1022.53 1022.52 1022.63 1022.73 1022.77 1022.86 1023.01 1023.13 1023.24 1023.38 1023.46 1023.67 1023.95 1024.03 1023.91 1023.56 1022.95 1023.44
1019.47 1019.81 1020.36 1020.86 1021.40 1021.89 1021.95 1022.02 1022.17 1022.32 1022.48 1022.64 1022.82 1022.90 1022.95 1022.99 1022.97 1023.08 1023.19 1023.26 1023.24 1023.41 1023.58 1023.70 1023.83 1024.10 1024.29 1024.32 1024.15 1023.71 1023.00 1023.23
1019.85 1019.92 1020.22 1020.59 1020.94 1021.79 1022.31 1022.50 1022.60 1022.71 1022.77 1022.94 1023.06 1022.47 1022.89 1023.09 1022.87 1023.33 1023.44 1023.55 1023.66 1023.75 1023.89 1024.09 1024.30 1024.55 1024.70 1024.61 1024.16 1022.90 1023.10 1023.05
1019.94 1020.24 1020.41 1020.71 1020.62 1021.32 1021.56 1021.93 1022.10 1022.15 1022.28 1022.64 1022.10 1022.32 1022.43 1022.46 1023.09 1023.67 1023.72 1023.79 1023.89 1024.04 1024.19 1024.34 1024.25 1023.74 1024.32 1024.73 1023.13 1023.33 1023.25 1023.32
1020.64 1020.70 1020.62 1020.66 1020.48 1020.90 1020.92 1021.18 1021.44 1021.84 1022.08 1022.30 1022.00 1022.33 1022.66 1022.70 1022.92 1023.40 1023.37 1023.82 1023.40 1023.89 1024.13 1023.48 1022.95 1022.98 1023.43 1023.41 1023.49 1023.64 1023.32 1023.40
1021.44 1020.69 1020.69 1021.32 1020.32 1020.72 1020.58 1020.66 1021.05 1021.29 1021.78 1022.17 1022.12 1022.24 1022.37 1022.34 1022.37 1022.65 1022.97 1023.06 1022.69 1022.88 1022.88 1022.78 1023.18 1023.20 1023.33 1023.58 1023.65 1023.33 1023.42 1023.56
1022.56 1022.09 1021.90 1020.81 1020.80 1020.33 1020.40 1020.46 1020.77 1020.91 1021.31 1021.90 1021.83 1021.88 1022.12 1022.20 1022.30 1022.44 1022.57 1022.63 1022.74 1022.73 1022.51 1022.92 1023.02 1023.12 1023.26 1023.38 1023.58 1023.59 1023.73 1023.54
1022.98 1022.54 1022.50 1021.70 1020.61 1020.70 1020.50 1020.48 1020.31 1020.79 1020.98 1021.24 1021.90 1021.73 1021.87 1022.06 1022.18 1022.46 1022.43 1022.52 1022.65 1022.72 1022.64 1022.67 1022.73 1022.67 1023.02 1023.15 1023.25 1023.39 1023.68 1023.79
1023.42 1022.73 1022.44 1022.34 1020.60 1020.12 1020.55 1020.67 1020.41 1020.49 1020.49 1020.97 1021.39 1021.67 1021.68 1021.89 1021.91 1022.06 1022.14 1022.40 1022.70 1022.94 1023.01 1022.97 1022.62 1022.80 1022.69 1022.96 1023.01 1023.21 1023.27 1023.65
1023.75 1023.13 1022.57 1022.39 1022.19 1021.16 1020.28 1020.13 1020.48 1020.10 1020.42 1020.54 1021.03 1021.25 1021.43 1021.72 1021.50 1021.59 1021.77 1022.05 1022.45 1022.58 1022.64 1022.71 1022.79 1022.70 1022.62 1022.56 1022.64 1022.68 1023.04 1023.34
1024.23 1023.50 1022.94 1022.50 1022.29 1021.67 1020.55 1020.19 1020.11 1020.10 1020.06 1020.37 1020.77 1020.97 1021.03 1021.22 1020.99 1021.06 1021.53 1021.56 1021.78 1021.98 1022.21 1022.30 1022.28 1022.46 1022.41 1022.42 1022.33 1022.28 1022.50 1022.68
1024.75 1024.15 1023.66 1022.87 1022.70 1022.19 1021.08 1020.17 1020.03 1019.87 1019.84 1019.93 1020.48 1020.75 1020.74 1020.82 1020.60 1020.64 1020.95 1020.95 1021.11 1021.46 1021.72 1021.90 1022.02 1021.96 1021.91 1021.89 1022.08 1022.09 1022.07 1022.22
1025.13 1024.51 1024.01 1023.28 1022.48 1022.44 1021.76 1021.38 1020.95 1020.02 1019.59 1019.65 1020.02 1020.32 1020.35 1020.43 1020.27 1020.12 1020.46 1020.34 1020.41 1020.88 1021.41 1021.72 1021.78 1021.95 1021.90 1021.63 1021.54 1021.90 1022.03 1021.87
1025.64 1025.03 1024.54 1024.02 1023.42 1022.66 1022.76 1022.16 1021.23 1020.45 1019.49 1019.47 1019.47 1019.64 1019.85 1019.80 1019.86 1019.52 1019.62 1019.89 1020.09 1020.36 1020.81 1021.03 1021.23 1021.51 1021.48 1021.14 1020.75 1020.88 1021.19 1021.44
1026.16 1025.68 1025.02 1024.51 1024.15 1023.00 1022.20 1021.68 1021.03 1020.38 1019.83 1019.47 1018.80 1018.91 1018.97 1019.21 1019.05 1019.26 1019.09 1019.39 1019.39 1019.90 1020.21 1020.38 1020.35 1020.77 1021.17 1020.52 1019.94 1019.49 1019.35 1019.44
1026.67 1026.13 1025.53 1024.96 1024.54 1023.67 1023.13 1022.17 1021.64 1021.31 1021.18 1020.51 1019.66 1018.28 1018.46 1018.65 1018.68 1018.39 1018.76 1018.88 1019.14 1019.07 1019.51 1019.78 1020.19 1019.71 1020.20 1020.48 1019.77 1019.27 1018.92 1018.73
1026.93 1026.46 1025.83 1025.41 1024.97 1024.47 1023.78 1022.96 1022.53 1022.21 1021.36 1020.76 1020.17 1019.46 1017.32 1016.46 1017.89 1017.59 1018.41 1018.59 1018.66 1018.97 1018.97 1019.26 1019.27 1019.50 1019.09 1019.48 1019.61 1019.52 1019.55 1019.23
1026.97 1026.58 1026.06 1025.70 1025.25 1024.85 1024.37 1023.84 1022.96 1022.27 1021.77 1021.09 1020.40 1019.63 1018.92 1017.52 1016.51 1016.50 1017.60 1017.99 1018.16 1018.27 1018.61 1018.77 1019.05 1018.88 1018.89 1018.57 1018.63 1018.70 1018.57 1018.62
1026.88 1026.64 1026.19 1025.91 1025.47 1025.06 1024.55 1024.11 1023.29 1022.48 1022.14 1021.75 1020.97 1020.16 1019.19 1018.85 1017.41 1017.02 1016.60 1017.07 1017.22 1017.33 1017.80 1018.16 1018.33 1018.48 1018.35 1018.11 1017.90 1017.77 1017.92 1017.79
1027.01 1026.77 1026.26 1026.00 1025.66 1025.19 1024.68 1024.27 1023.63 1022.93 1022.39 1022.04 1021.37 1020.74 1020.06 1019.05 1018.45 1017.10 1016.61 1016.50 1016.52 1016.79 1017.18 1017.60 1017.70 1017.74 1017.84 1017.70 1017.41 1017.10 1017.32 1017.16
Wind_Speed
9 10 9 8 7 7 9 11 9 9 9 8 8 8 8 9 9 9 9 10 10 11 11 11 11 11 10 8 4 6 8 8
9 9 9 8 9 6 6 8 8 8 8 8 7 7 6 7 8 8 7 7 9 10 10 10 10 10 9 8 4 5 8 8
6 7 8 8 9 9 7 7 6 7 9 8 9 9 11 11 7 7 6 6 7 9 9 9 9 8 7 6 9 4 6 5
5 6 7 7 7 10 9 9 9 9 9 11 9 8 8 8 7 5 4 5 8 9 9 9 11 8 7 6 5 5 4 4
6 6 6 7 7 7 6 6 6 6 9 10 7 7 6 6 6 7 6 7 8 9 9 8 6 5 7 4 5 5 4 3
20 9 8 9 6 7 7 7 7 7 9 11 7 6 8 7 6 9 7 7 7 9 7 6 7 5 5 5 5 3 4 4
17 14 16 8 11 7 8 8 8 9 9 11 9 9 8 8 7 7 8 8 7 7 6 7 7 7 6 7 6 4 4 3
16 15 14 16 11 11 9 8 9 9 9 10 13 10 8 9 9 9 8 7 7 7 7 7 7 6 7 7 7 6 6 5
17 15 12 13 15 12 9 9 10 9 10 12 14 13 11 11 10 9 9 8 9 7 7 7 6 6 7 7 7 7 7 7
17 15 14 16 10 12 8 11 9 10 10 10 14 15 14 12 10 10 10 9 9 9 8 8 8 7 7 7 7 7 8 9
17 17 17 17 14 10 10 11 8 9 10 10 12 15 15 13 11 11 12 10 10 9 9 9 8 8 8 8 7 7 8 9
17 15 17 15 11 10 7 7 7 9 10 9 13 12 15 14 12 13 12 11 11 10 12 10 9 9 9 9 8 7 8 8
18 17 18 14 11 12 6 4 9 6 8 11 13 15 15 15 13 13 13 14 14 13 11 13 10 9 8 9 9 9 10 9
19 18 17 14 12 10 6 8 7 7 9 9 12 15 14 15 15 14 15 13 14 14 14 11 11 10 9 9 10 11 11 12
17 18 18 15 17 11 11 7 6 6 4 7 10 15 16 16 17 15 14 13 12 14 14 17 12 12 14 10 8 10 9 11
18 17 16 15 17 14 16 10 11 10 7 8 13 13 15 14 16 15 16 12 14 13 13 14 14 13 10 13 15 11 7 8
16 17 16 16 16 15 13 13 11 10 10 11 11 11 13 14 15 12 13 11 14 14 13 14 13 13 12 11 13 13 13 11
14 17 17 16 16 16 15 15 15 12 13 12 9 8 8 13 9 11 12 13 14 13 15 17 14 14 13 13 12 12 13 13
14 16 16 17 16 16 15 15 15 14 12 11 14 9 10 10 13 9 10 13 13 13 12 13 16 15 15 13 13 13 12 13
14 15 16 16 17 17 15 15 11 11 13 11 10 10 9 14 8 11 13 14 13 11 10 11 13 13 19 16 13 13 13 13
Wind_Direction
141 140 122 96 98 111 121 122 122 122 121 124 126 122 122 127 126 128 126 125 124 130 129 127 123 118 110 105 72 325 115 109
148 148 155 153 151 89 106 121 127 126 121 121 115 118 120 129 134 130 125 127 135 136 130 130 125 121 120 120 132 240 118 130
152 158 160 157 160 141 131 123 116 126 132 118 153 170 174 165 99 133 139 131 135 133 125 122 117 110 116 149 203 108 134 125
169 188 178 175 172 160 171 162 177 184 181 170 187 156 189 205 134 140 140 137 136 125 121 138 191 154 149 193 214 114 148 149
212 230 216 211 187 184 184 176 177 187 196 194 196 182 176 205 173 188 184 191 168 170 161 191 170 171 156 184 115 186 131 131
350 305 195 236 213 203 200 196 190 193 195 199 198 203 183 200 195 195 203 194 178 195 185 184 178 182 171 161 172 170 149 140
352 338 333 230 237 213 221 215 201 204 193 197 209 211 200 200 203 205 208 201 205 209 199 193 189 185 183 184 183 172 153 159
353 339 339 313 233 242 243 221 210 207 204 203 211 214 205 213 208 214 213 209 216 224 225 207 209 198 193 200 192 186 185 180
358 347 345 350 279 229 224 250 233 217 216 207 206 211 209 222 221 216 216 210 221 224 227 242 234 216 213 196 199 204 193 193
358 354 357 353 336 323 230 227 241 233 226 216 211 213 219 212 220 223 222 215 211 218 214 218 227 229 228 222 216 210 209 203
358 357 359 353 347 335 298 235 221 234 231 224 220 219 214 223 223 220 224 221 215 218 219 225 217 230 234 231 230 231 209 208
0 358 358 350 353 336 338 266 245 245 233 221 227 227 220 218 228 226 219 222 222 217 224 217 236 227 231 229 237 234 232 221
1 359 359 351 353 354 344 329 325 248 245 224 217 229 229 225 227 222 224 225 223 216 222 230 222 235 243 239 237 233 240 236
1 358 359 357 352 341 330 308 284 283 251 224 222 221 225 227 228 229 218 226 225 220 215 224 226 217 228 240 237 226 223 229
3 0 358 1 354 344 340 334 330 321 332 281 225 228 222 224 223 225 228 221 223 219 219 218 224 223 216 238 227 247 248 200
1 358 2 2 356 350 347 343 337 330 318 301 318 220 227 226 230 225 227 224 227 220 221 227 224 230 210 234 253 282 256 245
359 357 360 3 0 356 347 346 346 330 324 321 327 342 247 221 221 224 227 231 228 232 228 220 225 232 233 217 234 238 239 267
357 356 359 359 359 358 353 346 337 339 340 333 337 326 317 271 223 217 218 223 227 229 233 232 228 232 235 235 231 227 233 234
349 354 354 357 356 355 355 350 340 335 344 335 334 336 340 331 317 233 235 227 226 231 231 234 231 232 230 234 235 237 241 242
350 349 349 355 354 353 349 351 348 339 341 337 327 333 325 323 322 330 247 233 233 227 233 237 231 233 235 234 240 237 238 239